EHI
0 0 0 0 0 0 0 0 0 0 0 0 0 0 0 0 0 0 0 0 0 0 0 0 0 0 0 0 0 0 0 0 0 0 0 0 0 0 0 0 0 0 0
0 0 0 0 0 0 0 0 0 0 0 0 0 0 0 0 0 0 0 0 0 0 0 0 0 0 0 0 0 0 0 0 0 0 0 0 0 0 0 0 0 0 0
0 0 0 0 0 0 0 0 0 0 0 0 0 0 0 0 0 0 0 0 0 0 0 0 0 0 0 0 0 0 0 0 0 0 0 0 0 0 0 0 0 0 0
0 0 0 0 0 0 0 0 0 0 0 0 0 0 0 0 0 0 0 0 0 0 0 0 0 0 0 0 0 0 0 0 0 0 0 0 0 0 0 0 0 0 0
0 0 0 0 0 0 0 0 0 0 0 0 0 0 0 0 0 0 0 0 0 0 0 0 0 0 0 0 0 0 0 0 0 0 0 0 0 0 0 0 0 0 0
0 0 0 0 0 0 0 0 0 0 0 0 0 0 0 0 0 0 0 0 0 0 0 0 0 0 0 0 0 0 0 0 0 0 0 0 0 0 0 0 0 0 0
0 0 0 0 0 0 0 0 0 0 0 0 0 0 0 0 0 0 0 0 0 0 0 0 0 0 0 0 0 0 0 0 0 0 0 0 0 0 0 0 0 0 0
0 0 0 0 0 0 0 0 0 0 0 0 0 0 0 0 0 0 0 0 0 0 0 0 0 0 0 0 0 0 0 0 0 0 0 0 0 0 0 0 0 0 0
0 0 0 0 0 0 0 0 0 0 0 0 0 0 0 0 0 0 0 0 0 0 0 0 0 0 0 0 0 0 0 0 0 0 0 0 0 0 0 0 0 0 0
0 0 0 0 0 0 0 0 0 0 0 0 0 0 0 0 0 0 0 0 0 0 0 0 0 0 0 0 0 0 0 0 0 0 0 0 0 0 0 0 0 0 0
0 0 0 0 0 0 0 0 0 0 0 0 0 0 0 0 0 0 0 0 0 0 0 0 0 0 0 0 0 0 0 0 0 0 0 0 0 0 0 0 0 0 0
0 0 0 0 0 0 0 0 0 0 0 0 0 0 0 0 0 0 0 0 0 0 0 0 0 0 0 0 0 0 0 0 0 0 0 0 0 0 0 0 0 0 0
0 0 0 0 0 0 0 0 0 0 0 0 0 0 0 0 0 0 0 0 0 0 0 0 0 0 0 0 0 0 0 0 0 0 0 0 0 0 0 0 0 0 0
0 0 0 0 0 0 0 0 0 0 0 0 0 0 0 0 0 0 0 0 0 0 0 0 0 0 0 0 0 0 0 0 0 0 0 0 0 0 0 0 0 0 0
0 0 0 0 0 0 0 0 0 0 0 0 0 0 0 0 0 0 0 0 0 0 0 0 0 0 0 0 0 0 0 0 0 0 0 0 0 0 0 0 0 0 0
0 0 0 0 0 0 0 0 0 0 0 0 0 0 0 0 0 0 0 0 0 0 0 0 0 0 0 0 0 0 0 0 0 0 0 0 0 0 0 0 0 0 0
0 0 0 0 0 0 0 0 0 0 0 0 0 0 0 0 0 0 0 0 0 0 0 0 0 0 0 0 0 0 0 0 0 0 0 0 0 0 0 0 0 0 0
0 0 0 0 0 0 0 0 0 0 0 0 0 0 0 0 0 0 0 0 0 0 0 0 0 0 0 0 0 0 0 0 0 0 0 0 0 0 0 0 0 0 0
0 0 0 0 0 0 0 0 0 0 0 0 0 0 0 0 0 0 0 0 0 0 0 0 0 0 0 0 0 0 0 0 0 0 0 0 0 0 0 0 0 0 0
0 0 0 0 0 0 0 0 0 0 0 0 0 0 0 0 0 0 0 0 0 0 0 0 0 0 0 0 0 0 0 0 0 0 0 0 0 0 0 0 0 0 0
0 0 0 0 0 0 0 0 0 0 0 0 0 0 0 0 0 0 0 0 0 0 0 0 0 0 0 0 0 0 0 0 0 0 0 0 0 0 0 0 0 0 0
0 0 0 0 0 0 0 0 0 0 0 0 0 0 0 0 0 0 0 0 0 0 0 0 0 0 0 0 0 0 0 0 0 0 0 0 0 0 0 0 0 0 0
0 0 0 0 0 0 0 0 0 0 0 0 0 0 0 0 0 0 0 0 0 0 0 0 0 0 0 0 0 0 0 0 0 0 0 0 0 0 0 0 0 0 0
0 0 0 0 0 0 0 0 0 0 0 0 0 0 0 0 0 0 0 0 0 0 0 0 0 0 0 0 0 0 0 0 0 0 0 0 0 0 0 0 0 0 0
0 0 0 0 0 0 0 0 0 0 0 0 0 0 0 0 0 0 0 0 0 0 0 0 0 0 0 0 0 0 0 0 0 0 0 0 0 0 0 0 0 0 0
0 0 0 0 0 0 0 0 0 0 0 0 0 0 0 0 0 0 0 0 0 0 0 0 0 0 0 0 0 0 0 0 0 0 0 0 0 0 0 0 0 0 0
Wind_Speed
4 5 13 14 13 11 10 10 9 9 10 10 10 11 11 11 11 11 12 12 13 13 14 14 15 15 15 15 15 16 16 17 17 18 18 17 17 17 17 16 15 10 17
7 7 14 15 14 12 11 10 10 9 10 10 10 10 10 10 10 11 11 12 12 13 13 13 14 14 14 14 15 15 15 15 15 16 17 15 15 16 16 16 16 11 16
7 8 11 15 14 13 11 10 10 10 9 9 10 9 9 10 10 10 10 11 11 12 12 13 13 13 13 13 14 14 14 14 14 15 15 9 9 14 15 15 15 15 14
9 8 8 15 14 13 12 11 10 10 9 9 9 8 9 9 9 10 10 10 11 11 11 12 12 12 12 12 12 13 13 14 14 14 8 8 8 12 13 13 13 13 13
8 7 9 16 15 13 12 11 11 10 9 9 8 8 8 9 9 9 9 9 10 10 10 11 11 11 11 11 11 12 12 13 13 11 7 7 7 10 11 11 11 11 11
8 7 9 16 15 14 13 12 11 10 9 8 7 7 8 8 8 8 8 8 8 8 9 9 9 10 10 10 10 10 10 11 10 6 6 6 6 9 10 10 10 10 10
8 6 8 15 15 14 13 12 11 10 9 8 7 7 7 7 7 7 6 6 7 7 7 8 8 9 9 9 9 9 9 9 6 5 5 5 7 10 9 9 8 8 8
8 7 7 15 14 14 13 12 11 10 8 7 7 7 6 6 6 5 5 5 5 5 6 6 7 7 7 8 8 8 8 7 5 4 4 4 8 9 9 8 8 7 7
6 6 5 7 9 12 13 12 11 10 9 7 7 6 5 4 4 4 3 3 3 4 4 5 6 6 6 7 7 7 7 7 3 2 3 3 8 10 10 9 8 8 8
5 5 5 5 6 6 7 10 10 9 9 7 6 6 5 3 3 3 2 1 1 2 3 4 5 6 6 7 7 7 7 5 2 2 2 4 10 11 11 10 10 10 9
6 5 4 5 5 5 5 7 8 8 7 6 5 6 4 2 2 1 1 1 2 3 4 5 6 7 7 6 8 8 5 1 2 2 3 8 11 12 12 12 12 12 11
9 7 5 5 6 5 4 4 3 3 3 3 3 3 3 2 1 1 2 3 3 4 5 6 7 7 5 2 5 6 2 3 2 3 4 11 13 14 14 14 14 14 14
8 8 6 5 5 5 4 3 2 2 2 3 3 3 3 2 1 1 0 1 2 3 2 4 4 2 2 2 2 3 3 3 2 3 5 13 14 15 16 16 16 16 16
7 8 6 6 5 5 4 3 3 2 2 2 2 3 3 1 1 1 1 1 1 1 2 2 2 3 3 3 3 4 5 3 3 3 5 14 15 16 17 18 18 18 17
7 7 6 6 6 5 4 3 3 3 3 2 2 2 3 2 2 1 1 1 2 1 2 2 2 3 4 4 4 4 5 6 5 5 5 13 16 17 18 19 19 19 19
7 7 6 6 6 6 4 4 3 3 2 2 2 2 3 2 2 1 1 1 2 2 2 2 3 3 3 3 5 5 5 5 5 6 5 8 15 17 18 19 20 20 20
6 6 6 6 6 6 5 4 3 3 3 2 2 2 2 2 2 1 1 1 2 2 2 2 3 2 3 3 5 5 5 5 6 6 6 5 6 12 16 18 18 19 19
5 6 6 6 6 6 5 4 3 3 3 2 1 1 2 2 1 1 1 1 1 1 1 1 2 2 3 3 4 4 4 5 7 7 6 5 4 5 9 15 16 17 17
5 6 6 6 6 6 5 4 4 3 3 2 2 1 1 1 1 1 1 1 1 1 1 2 1 1 3 4 4 4 4 5 6 6 6 6 5 5 4 9 14 15 16
4 5 6 6 6 6 5 4 3 3 3 2 2 1 2 1 1 1 0 1 1 1 1 1 2 2 2 3 5 5 5 6 5 5 5 4 4 5 4 5 5 8 13
4 5 5 6 5 5 3 3 3 2 2 1 1 2 2 2 2 1 1 1 1 1 1 1 1 2 2 2 3 4 5 5 4 4 3 3 4 5 4 4 4 4 5
4 5 5 6 5 5 4 3 3 3 2 1 1 2 2 2 2 1 1 1 1 1 2 1 1 1 2 1 1 3 5 5 4 3 3 4 5 4 4 5 5 5 5
4 5 5 5 5 5 5 4 3 3 2 1 1 1 2 2 1 1 1 0 1 0 1 2 1 1 2 2 1 1 2 4 5 4 4 4 4 4 4 5 6 7 7
5 4 5 5 5 5 5 5 5 3 2 2 1 0 1 2 2 1 1 1 1 1 1 2 1 2 2 2 2 3 4 4 4 6 4 4 5 6 6 7 7 7 7
5 5 5 5 5 4 4 5 5 3 2 1 1 0 1 2 2 2 1 1 1 1 2 2 2 2 2 3 3 3 3 3 6 6 8 5 4 5 6 7 7 7 8
5 5 5 5 4 4 4 5 5 5 4 3 1 0 1 1 1 2 1 1 1 2 2 3 3 4 4 4 4 4 4 4 4 5 8 8 7 5 7 6 7 7 7
Wind_Direction
209 201 179 156 153 150 143 135 126 116 110 104 97 92 87 82 76 70 66 61 57 56 57 57 56 55 55 54 53 52 50 47 45 44 42 44 50 52 52 51 48 39 46
165 177 177 159 156 154 148 139 130 120 112 108 102 94 88 83 77 72 65 60 56 55 57 56 55 54 52 51 51 51 50 48 47 45 40 33 40 51 49 47 47 45 45
149 169 173 161 159 156 151 143 136 128 119 111 104 98 92 86 79 73 67 62 58 56 57 56 54 54 51 49 49 48 49 49 47 43 34 20 21 47 49 47 46 44 43
153 163 166 163 161 158 154 147 141 136 125 116 108 103 96 90 80 74 69 63 60 57 56 56 54 53 51 48 47 47 48 47 45 40 27 15 7 38 45 44 43 42 40
151 158 166 164 163 161 158 154 146 139 132 124 114 107 100 91 81 74 68 65 61 58 56 54 52 50 49 46 45 44 47 45 41 34 21 11 2 28 40 40 38 37 36
151 156 168 166 165 164 162 160 152 147 141 134 125 117 108 95 83 76 70 66 62 57 54 51 48 46 44 42 41 41 43 45 41 26 17 6 353 13 28 30 29 30 29
151 157 170 168 168 166 165 162 156 151 146 142 137 130 117 104 94 85 75 66 58 53 49 45 42 39 36 34 33 33 35 40 47 28 12 360 345 1 10 14 14 14 16
153 156 169 173 170 169 168 164 160 156 154 153 149 141 130 116 107 95 84 71 56 47 41 36 32 30 26 23 22 24 28 36 38 18 358 348 338 344 347 351 351 350 352
148 153 171 172 171 172 170 169 167 163 163 164 157 149 140 131 124 110 91 69 50 36 28 20 16 14 13 11 10 11 14 25 50 358 339 327 322 327 327 327 326 326 326
147 158 169 162 158 160 165 171 170 169 168 169 163 152 143 137 126 124 107 42 9 4 357 354 355 354 356 355 353 353 359 24 19 326 309 302 313 315 316 315 314 311 309
165 169 172 160 154 151 155 169 168 171 171 167 161 151 133 113 108 120 164 258 304 322 329 333 337 342 350 348 338 337 356 358 315 293 284 297 308 311 311 310 308 307 303
181 182 178 165 156 152 153 154 154 152 150 142 132 135 129 132 141 147 226 260 295 319 326 328 331 346 0 349 330 334 332 307 294 281 282 299 306 309 309 308 306 304 301
184 184 180 171 160 155 150 148 144 138 136 139 144 144 137 132 131 129 221 311 323 329 333 328 336 340 330 314 308 305 294 291 276 274 281 296 301 304 305 306 305 303 300
182 189 182 171 162 159 150 147 147 141 140 150 157 149 142 148 165 189 230 261 276 293 293 298 295 297 296 291 286 288 287 279 273 270 278 292 298 301 303 302 302 300 298
186 188 182 169 166 157 145 144 143 148 154 157 148 155 159 165 188 202 231 251 263 261 262 270 274 282 285 285 279 276 279 279 277 273 278 290 295 298 300 301 300 299 299
187 186 175 169 164 152 149 148 146 142 138 135 144 160 161 168 181 200 232 249 259 254 254 260 269 275 280 280 282 279 275 276 273 272 267 281 289 294 298 300 300 300 299
184 178 172 167 155 152 151 148 138 137 135 139 149 148 153 165 186 192 222 253 262 264 268 275 281 278 280 282 282 283 278 272 271 270 268 262 273 286 293 298 301 302 302
165 163 166 160 152 150 146 139 131 132 130 134 134 138 156 166 169 172 212 265 282 284 279 280 280 289 285 285 283 283 278 275 272 269 268 267 266 273 288 297 303 306 307
156 154 151 147 148 146 136 125 119 118 115 116 111 110 111 115 128 146 212 278 308 311 304 297 291 270 285 291 287 280 274 270 271 275 275 274 270 269 271 292 302 307 309
128 135 138 132 134 130 120 108 98 90 84 79 85 85 80 75 84 101 69 353 7 358 333 326 301 290 272 286 295 290 278 273 273 272 274 280 280 278 277 279 291 300 306
113 126 135 134 138 135 126 125 121 116 98 78 69 65 62 58 61 76 45 1 8 345 312 317 310 311 301 311 321 309 294 285 284 273 270 280 288 288 287 284 280 274 291
134 136 137 140 142 143 136 130 126 126 117 105 65 50 49 53 48 63 56 346 349 342 341 338 329 313 300 335 335 325 327 327 325 295 289 282 278 285 288 289 287 280 275
151 156 150 145 140 135 126 111 93 80 70 63 49 29 13 25 33 44 41 4 340 308 295 295 266 241 284 296 220 235 296 292 303 286 274 268 275 283 284 288 279 274 274
173 157 145 141 136 136 136 138 139 143 155 178 170 150 351 12 18 20 21 12 318 282 280 283 265 232 230 272 276 233 229 243 281 299 289 278 274 272 272 278 277 274 271
165 157 148 138 135 139 141 144 137 134 145 145 130 70 4 356 359 358 354 346 312 285 277 277 279 253 226 236 244 249 254 250 237 261 283 280 276 258 259 263 267 269 269
160 155 150 144 144 145 142 142 144 147 150 146 151 161 330 326 325 332 327 314 291 280 277 272 264 259 249 246 246 237 236 244 244 250 274 283 279 265 256 255 257 261 263